Regional Weather Roundup
Issued by NWS

Home | Current Version | Previous Version | Graphics & Text | Print | Product List | Glossary On
Versions: 1 2 3 4 5 6 7 8 9 10 11 12 13 14 15 16 17 18 19 20 21 22 23 24 25 26 27 28 29 30 31 32 33 34 35 36 37 38 39 40 41 42 43 44 45 46 47 48 49 50
000
ASUS43 KMPX 291810
RWRMN
WEATHER ROUNDUP FOR MINNESOTA
NATIONAL WEATHER SERVICE TWIN CITIES/CHANHASSEN MN
100 PM CDT MON JUN 29 2015


NOTE: "FAIR" INDICATES FEW OR NO CLOUDS BELOW 12,000 FEET WITH NO
SIGNIFICANT WEATHER AND/OR OBSTRUCTIONS TO VISIBILITY. N/A MEANS
CURRENT SKY AND/OR WEATHER CONDITIONS ARE NOT AVAILABLE.

MNZ060>063-068>070-291900-
   Twin Cities Metro

CITY           SKY/WX    TMP DP  RH WIND       PRES   REMARKS
TWIN CITIES    MOSUNNY   82  63  52 NW12G20   29.82F
6HR MIN TEMP:  66; 6HR MAX TEMP:  82;

ST PAUL        SUNNY     81  63  54 NW14      29.81F
CRYSTAL        PTSUNNY   82  63  52 NW12      29.81F
BLAINE         PTSUNNY   81  64  57 W9        29.81F
LAKEVILLE      MOSUNNY   77  64  65 W7        29.83F
EDEN PRAIRIE   MOSUNNY   81  65  58 NW8       29.82F
6HR MIN TEMP:  66; 6HR MAX TEMP:  82;

SOUTH ST PAUL  SUNNY     81  60  48 NW7       29.81F
LAKE ELMO      FAIR      81  63  54 NW12      29.83S
$$
MNZ001>005-007-008-013>017-022>024-027-028-291900-
   Northwest Minnesota

CITY           SKY/WX    TMP DP  RH WIND       PRES   REMARKS
BEMIDJI        SUNNY     77  63  61 N9        29.82S
HALLOCK        SUNNY     77  64  65 N8        29.85S
ROSEAU         SUNNY     77  63  61 N9        29.84S
WARROAD        MOSUNNY   73  64  73 E6        29.84S
THIEF RVR FALL SUNNY     77  63  61 N10       29.85R
CROOKSTON      SUNNY     75  63  64 N12       29.86R
FOSSTON        SUNNY     75  64  69 N3        29.85S
DETROIT LAKES  SUNNY     73  63  68 NW9       29.88R
MOORHEAD       SUNNY     75  64  69 N10       29.86S
PARK RAPIDS    SUNNY     79  62  56 NW13      29.82F
MAHNOMEN       FAIR      74  63  69 NW7       29.84S
$$
MNZ006-009>011-018-025>026-291900-
   North Central Minnesota

CITY           SKY/WX    TMP DP  RH WIND       PRES   REMARKS
BAUDETTE       SUNNY     74  59  59 NW14G20   29.82S
FLAG ISLAND    MOSUNNY   72  59  64 N12       29.83S
INTL FALLS     MOSUNNY   75  57  53 N10       29.80R
6HR MIN TEMP:  62; 6HR MAX TEMP:  75;

WASKISH        MOSUNNY   79  61  53 N7        29.81S
BIG FORK       SUNNY    N/A N/A N/A N7        29.80S
LONGVILLE      MOSUNNY   75  64  69 NW6       29.81S
GRAND RAPIDS   MOSUNNY   77  63  61 NW8       29.79F
CRANE LAKE     PTSUNNY   70  63  78 N5        29.80S
ORR            SUNNY     72  59  64 NW1       29.77S
COOK           MOSUNNY   70  63  78 NW3       29.80S
WALKER         FAIR      76  63  63 NW9       29.81S
$$
MNZ012-019>021-037-291900-
   Northeast Minnesota

CITY           SKY/WX    TMP DP  RH WIND       PRES   REMARKS
DULUTH         PTSUNNY   67  59  75 N8        29.78F
6HR MIN TEMP:  60; 6HR MAX TEMP:  77; 6HR PCP:  0.45;

ELY            PTSUNNY   68  61  77 NW7       29.79F
HIBBING        MOSUNNY   74  62  66 VRB6      29.79F
EVELETH        PTSUNNY   66  61  82 N3        29.80F
DULUTH HARBOR  CLOUDY    66  63  88 E5        29.78S THUNDER
TWO HARBORS    CLOUDY    64  61  88 NW3       29.74F
GRAND MARAIS     N/A     56  55  97 NE3       29.74F
G MARAIS ARPRT CLOUDY    61  57  88 CALM      29.78F
$$
MNZ029>031-032-039>041-046>048-054>057-064-291900-
   West Central Minnesota

CITY           SKY/WX    TMP DP  RH WIND       PRES   REMARKS
FERGUS FALLS   SUNNY     75  64  69 W12       29.86S
WHEATON        SUNNY     75  63  64 W10       29.89S
MORRIS         SUNNY     77  64  65 NW9       29.87F
ALEXANDRIA     SUNNY     75  63  66 W10       29.88S
ELBOW LAKE     FAIR      75  65  71 W10       29.87S
WADENA         SUNNY     75  63  64 W7        29.84S
GLENWOOD       SUNNY     75  64  69 W9        29.88S
APPLETON       SUNNY     79  63  57 NW10      29.88S
BENSON         SUNNY     79  63  57 NW7       29.87F
ORTONVILLE     SUNNY     79  61  53 W7        29.88F
MADISON        SUNNY     79  61  53 NW9       29.89S
WILLMAR        FAIR      77  66  69 W10       29.88F
$$
MNZ033>034-036-042>043-049>051-058-059-291900-
   Central Minnesota

CITY           SKY/WX    TMP DP  RH WIND       PRES   REMARKS
ST CLOUD       SUNNY     81  62  52 NW8       29.82F
6HR MIN TEMP:  64; 6HR MAX TEMP:  82;

SAUK CENTRE    FAIR      77  65  65 W9        29.85F
PAYNESVILLE    SUNNY     75  65  73 SW9       29.86F
AITKIN         MOSUNNY   77  63  61 CALM      29.79F
PINE RIVER       N/A     79  64  61 NW9G16    29.84F
BRAINERD       TSTM      73  65  75 W6        29.82F
STAPLES        SUNNY     79  61  53 NW13      29.83S
LONG PRAIRIE   FAIR      77  63  61 W10       29.85F
LITTLE FALLS   SUNNY     79  61  53 W8        29.82F
LITCHFIELD     SUNNY     81  63  54 W10       29.86F
BUFFALO        MOSUNNY   80  62  54 W7        29.84F
MAPLE LAKE     SUNNY     80  65  60 W8        29.85S
$$
MNZ037-044-045-052-053-291900-
   East Central Minnesota

CITY           SKY/WX    TMP DP  RH WIND       PRES   REMARKS
PRINCETON      SUNNY     82  64  54 W9        29.82F
MORA           SUNNY     77  61  57 W8        29.82S
CAMBRIDGE      SUNNY     82  64  54 W8        29.80S
RUSH CITY      MOSUNNY   80  64  58 W6        29.80F
MOOSE LAKE     MOSUNNY   79  70  73 W5        29.76F
HINCKLEY       FAIR      81  63  54 NW7       29.79F
CLOQUET        MOSUNNY   70  55  60 N7        29.79F THUNDER
MCGREGOR       SUNNY     79  63  57 W9        29.79F
$$
MNZ071>073-080-081-089-090-097-098-291900-
   Southwest Minnesota

CITY           SKY/WX    TMP DP  RH WIND       PRES   REMARKS
MONTEVIDEO     SUNNY     79  66  65 N5        29.89F
GRANITE FALLS  SUNNY     77  65  66 W10       29.90F
CANBY          SUNNY     78  63  60 W10       29.91F
MARSHALL       SUNNY     79  61  53 NW15      29.90S
REDWOOD FALLS  SUNNY     77  65  66 NW10      29.88S
OLIVIA         SUNNY     73  63  68 NW9       29.87S
PIPESTONE      SUNNY     79  61  53 NW12      29.94F
WINDOM         SUNNY     79  63  57 NW10G17   29.91S
WORTHINGTON    SUNNY     79  61  53 NW16      29.93S
JACKSON        SUNNY     79  63  57 NW14      29.92S
TRACY          SUNNY     80  64  57 NW9       29.91S
SLAYTON        SUNNY     79  57  46 NW12      29.94S
$$
MNZ065>067-074>077-082>085-091>093-291900-
   South Central Minnesota

CITY           SKY/WX    TMP DP  RH WIND       PRES   REMARKS
MANKATO        MOSUNNY   79  63  57 NW10      29.86F
NEW ULM        SUNNY     79  63  57 NW8       29.87S
ST JAMES       SUNNY     81  64  57 W13       29.89S
FAIRMONT       SUNNY     79  61  53 NW12      29.89F
GLENCOE        MOSUNNY   81  67  61 W6        29.85S
FARIBAULT      MOSUNNY   81  66  61 W12G18    29.85F
OWATONNA       SUNNY     79  63  57 NW13G18   29.86S
WASECA         SUNNY     77  64  65 W8        29.88S
ALBERT LEA     MOSUNNY   79  64  61 NW7       29.87S
$$
MNZ078>079-086>088-094>096-291900-
   Southeast Minnesota

CITY           SKY/WX    TMP DP  RH WIND       PRES   REMARKS
ROCHESTER      MOSUNNY   77  64  64 W14       29.86S
6HR MIN TEMP:  63; 6HR MAX TEMP:  79;

RED WING       SUNNY     82  63  51 NW9       29.80F
STANTON        MOSUNNY   79  66  65 NW10G17   29.82F
DODGE CENTER   SUNNY     79  64  61 NW12G17   29.86S
WINONA         SUNNY     77  64  65 N6        29.83S
AUSTIN         MOSUNNY   79  64  61 NW12      29.86S
PRESTON        PTSUNNY   74  62  65 NW9       29.86S
$$
ABBREVIATIONS USED IN REMARKS
   TC - TEMPERATURES IN CELSIUS
  WCI - WIND CHILL INDEX
   HX - HEAT INDEX
  VSB - VISIBILITY
$$



USA.gov is the U.S. government's official web portal to all federal, state and local government web resources and services.